Time,TemperatureF,DewpointF,PressureIn,WindDirection,WindDirectionDegrees,WindSpeedMPH,WindSpeedGustMPH,Humidity,HourlyPrecipIn,Conditions,Clouds,dailyrainin,SolarRadiationWatts/m^2,SoftwareType,DateUTC
2013-01-07 00:00:00,70.1,67.7,30.07,South,187,0.0,0.0,92,0.00,,BKN250,0.01,0.00,VWS V14.00,2013-01-07 05:00:00,
2013-01-07 00:03:00,70.2,67.4,30.07,South,187,0.0,0.0,91,0.00,,BKN250,0.00,0.00,VWS V14.00,2013-01-07 05:03:00,
2013-01-07 00:08:00,70.3,67.6,30.07,South,187,0.0,1.0,91,0.00,,BKN250,0.00,0.00,VWS V14.00,2013-01-07 05:08:00,
2013-01-07 00:13:00,70.3,67.6,30.07,South,187,0.0,1.0,91,0.00,,BKN250,0.00,0.00,VWS V14.00,2013-01-07 05:13:00,
2013-01-07 00:18:00,70.3,67.6,30.07,South,187,0.0,3.0,91,0.00,,BKN250,0.00,0.00,VWS V14.00,2013-01-07 05:18:00,
2013-01-07 00:23:00,70.4,67.7,30.07,South,187,0.0,1.0,91,0.00,,BKN250,0.00,0.00,VWS V14.00,2013-01-07 05:23:00,
2013-01-07 00:28:00,70.4,67.7,30.07,South,187,0.0,0.0,91,0.00,,BKN250,0.00,0.00,VWS V14.00,2013-01-07 05:28:00,
2013-01-07 00:33:00,70.4,67.7,30.07,South,187,0.0,2.0,91,0.00,,BKN250,0.00,0.00,VWS V14.00,2013-01-07 05:33:00,
2013-01-07 00:38:00,70.4,67.7,30.07,South,187,0.0,0.0,91,0.00,,BKN250,0.00,0.00,VWS V14.00,2013-01-07 05:38:00,
2013-01-07 00:43:00,70.3,67.9,30.06,South,187,0.0,0.0,92,0.00,,BKN250,0.00,0.00,VWS V14.00,2013-01-07 05:43:00,
2013-01-07 00:48:00,70.3,67.9,30.06,South,187,0.0,0.0,92,0.00,,BKN250,0.00,0.00,VWS V14.00,2013-01-07 05:48:00,
2013-01-07 00:53:00,70.3,67.9,30.06,South,187,0.0,0.0,92,0.00,,BKN250,0.00,0.00,VWS V14.00,2013-01-07 05:53:00,
2013-01-07 00:58:00,70.3,67.9,30.07,South,187,0.0,0.0,92,0.00,,BKN250,0.00,0.00,VWS V14.00,2013-01-07 05:58:00,
2013-01-07 01:03:00,70.2,67.8,30.06,South,187,0.0,1.0,92,0.00,,BKN250,0.00,0.00,VWS V14.00,2013-01-07 06:03:00,
2013-01-07 01:08:00,70.1,67.7,30.06,South,187,0.0,0.0,92,0.00,,BKN250,0.00,0.00,VWS V14.00,2013-01-07 06:08:00,
2013-01-07 01:13:00,70.0,67.6,30.06,South,187,0.0,0.0,92,0.00,,BKN250,0.00,0.00,VWS V14.00,2013-01-07 06:13:00,
2013-01-07 01:18:00,69.9,67.5,30.06,South,187,0.0,0.0,92,0.00,,BKN250,0.00,0.00,VWS V14.00,2013-01-07 06:18:00,
2013-01-07 01:23:00,69.9,67.5,30.05,South,187,0.0,0.0,92,0.00,,BKN250,0.00,0.00,VWS V14.00,2013-01-07 06:23:00,
2013-01-07 01:28:00,69.8,67.4,30.05,South,187,0.0,0.0,92,0.00,,BKN250,0.00,0.00,VWS V14.00,2013-01-07 06:28:00,
2013-01-07 01:33:00,69.8,67.4,30.05,South,187,0.0,1.0,92,0.00,,BKN250,0.00,0.00,VWS V14.00,2013-01-07 06:33:00,
2013-01-07 01:38:00,69.7,67.3,30.05,South,187,0.0,0.0,92,0.00,,BKN250,0.00,0.00,VWS V14.00,2013-01-07 06:38:00,
2013-01-07 01:43:00,69.6,67.2,30.05,South,187,0.0,0.0,92,0.00,,BKN250,0.00,0.00,VWS V14.00,2013-01-07 06:43:00,
2013-01-07 01:48:00,69.5,67.1,30.05,South,187,0.0,0.0,92,0.00,,BKN250,0.00,0.00,VWS V14.00,2013-01-07 06:48:00,
2013-01-07 01:53:00,69.5,67.1,30.05,South,187,0.0,0.0,92,0.00,,BKN250,0.00,0.00,VWS V14.00,2013-01-07 06:53:00,
2013-01-07 01:58:00,69.4,67.0,30.05,South,187,0.0,0.0,92,0.00,,BKN250,0.00,0.00,VWS V14.00,2013-01-07 06:58:00,
2013-01-07 02:03:00,69.4,67.0,30.05,South,187,0.0,1.0,92,0.00,,BKN250,0.00,0.00,VWS V14.00,2013-01-07 07:03:00,
2013-01-07 02:08:00,69.4,67.0,30.05,South,187,0.0,1.0,92,0.00,,BKN250,0.00,0.00,VWS V14.00,2013-01-07 07:08:00,
2013-01-07 02:13:00,69.3,66.9,30.04,South,187,0.0,0.0,92,0.00,,BKN250,0.00,0.00,VWS V14.00,2013-01-07 07:13:00,
2013-01-07 02:18:00,69.3,66.9,30.04,South,187,0.0,1.0,92,0.00,,BKN250,0.00,0.00,VWS V14.00,2013-01-07 07:18:00,
2013-01-07 02:23:00,69.3,66.9,30.04,South,187,0.0,1.0,92,0.00,,BKN250,0.00,0.00,VWS V14.00,2013-01-07 07:23:00,
2013-01-07 02:28:00,69.3,66.9,30.04,South,187,0.0,1.0,92,0.00,,BKN250,0.00,0.00,VWS V14.00,2013-01-07 07:28:00,
2013-01-07 02:33:00,69.3,66.9,30.05,South,187,0.0,0.0,92,0.00,,BKN250,0.00,0.00,VWS V14.00,2013-01-07 07:33:00,
2013-01-07 02:38:00,69.2,66.8,30.04,South,187,0.0,1.0,92,0.00,,BKN250,0.00,0.00,VWS V14.00,2013-01-07 07:38:00,
2013-01-07 02:43:00,69.2,66.8,30.04,South,187,3.0,4.0,92,0.00,,BKN250,0.00,0.00,VWS V14.00,2013-01-07 07:43:00,
2013-01-07 02:48:00,69.2,66.8,30.04,South,187,2.0,2.0,92,0.00,,BKN250,0.00,0.00,VWS V14.00,2013-01-07 07:48:00,
2013-01-07 02:53:00,69.2,66.8,30.04,South,182,0.0,2.0,92,0.00,,BKN250,0.00,0.00,VWS V14.00,2013-01-07 07:53:00,
2013-01-07 02:58:00,69.1,66.7,30.04,South,180,2.0,3.0,92,0.00,,BKN250,0.00,0.00,VWS V14.00,2013-01-07 07:58:00,
2013-01-07 03:03:00,69.1,66.7,30.05,South,180,1.0,3.0,92,0.00,,BKN250,0.00,0.00,VWS V14.00,2013-01-07 08:03:00,
2013-01-07 03:09:00,69.0,66.6,30.05,South,177,2.0,4.0,92,0.00,,BKN250,0.00,0.00,VWS V14.00,2013-01-07 08:09:00,
2013-01-07 03:13:00,68.9,66.5,30.05,South,175,1.0,4.0,92,0.00,,BKN250,0.00,0.00,VWS V14.00,2013-01-07 08:13:00,
2013-01-07 03:18:00,68.9,66.5,30.04,South,175,0.0,1.0,92,0.00,,BKN250,0.00,0.00,VWS V14.00,2013-01-07 08:18:00,
2013-01-07 03:23:00,68.8,66.4,30.04,South,175,0.0,0.0,92,0.00,,BKN250,0.00,0.00,VWS V14.00,2013-01-07 08:23:00,
2013-01-07 03:29:00,68.8,66.4,30.04,South,175,0.0,2.0,92,0.00,,BKN250,0.00,0.00,VWS V14.00,2013-01-07 08:29:00,
2013-01-07 03:34:00,68.7,66.3,30.04,South,175,0.0,0.0,92,0.00,,BKN250,0.00,0.00,VWS V14.00,2013-01-07 08:34:00,
2013-01-07 03:39:00,68.7,66.3,30.04,South,175,0.0,0.0,92,0.00,,BKN250,0.00,0.00,VWS V14.00,2013-01-07 08:39:00,
2013-01-07 03:44:00,68.6,66.2,30.04,South,175,0.0,0.0,92,0.00,,BKN250,0.00,0.00,VWS V14.00,2013-01-07 08:44:00,
2013-01-07 03:49:00,68.6,66.2,30.04,South,175,0.0,2.0,92,0.00,,BKN250,0.00,0.00,VWS V14.00,2013-01-07 08:49:00,
2013-01-07 03:54:00,68.6,66.2,30.04,South,175,0.0,0.0,92,0.00,,BKN250,0.00,0.00,VWS V14.00,2013-01-07 08:54:00,
2013-01-07 03:59:00,68.5,66.1,30.03,South,175,0.0,1.0,92,0.00,,BKN250,0.00,0.00,VWS V14.00,2013-01-07 08:59:00,
2013-01-07 04:04:00,68.5,66.1,30.03,South,175,0.0,0.0,92,0.00,,BKN250,0.00,0.00,VWS V14.00,2013-01-07 09:04:00,
2013-01-07 04:09:00,68.5,66.1,30.03,South,175,0.0,0.0,92,0.00,,BKN250,0.00,0.00,VWS V14.00,2013-01-07 09:09:00,
2013-01-07 04:14:00,68.4,66.0,30.03,South,175,0.0,1.0,92,0.00,,BKN250,0.00,0.00,VWS V14.00,2013-01-07 09:14:00,
2013-01-07 04:19:00,68.4,66.0,30.02,South,175,0.0,0.0,92,0.00,,BKN250,0.00,0.00,VWS V14.00,2013-01-07 09:19:00,
2013-01-07 04:24:00,68.4,66.0,30.03,South,175,0.0,1.0,92,0.00,,BKN250,0.00,0.00,VWS V14.00,2013-01-07 09:24:00,
2013-01-07 04:29:00,68.4,66.0,30.03,South,175,1.0,2.0,92,0.00,,BKN250,0.00,0.00,VWS V14.00,2013-01-07 09:29:00,
2013-01-07 04:34:00,68.4,66.0,30.03,South,170,2.0,4.0,92,0.00,,BKN250,0.00,0.00,VWS V14.00,2013-01-07 09:34:00,
2013-01-07 04:39:00,68.4,66.0,30.03,South,169,1.0,1.0,92,0.00,,BKN250,0.00,0.00,VWS V14.00,2013-01-07 09:39:00,
2013-01-07 04:44:00,68.4,66.0,30.03,SSE,168,0.0,0.0,92,0.00,,BKN250,0.00,0.00,VWS V14.00,2013-01-07 09:44:00,
2013-01-07 04:49:00,68.4,66.0,30.03,SSE,168,0.0,0.0,92,0.00,,BKN250,0.00,0.00,VWS V14.00,2013-01-07 09:49:00,
2013-01-07 04:54:00,68.4,66.0,30.03,SSE,168,0.0,1.0,92,0.00,,BKN250,0.00,0.00,VWS V14.00,2013-01-07 09:54:00,
2013-01-07 04:59:00,68.4,66.0,30.03,SSE,168,0.0,1.0,92,0.00,,BKN250,0.00,0.00,VWS V14.00,2013-01-07 09:59:00,
2013-01-07 05:04:00,68.4,66.0,30.04,SSE,168,0.0,2.0,92,0.00,,BKN250,0.00,0.00,VWS V14.00,2013-01-07 10:04:00,
2013-01-07 05:09:00,68.4,66.0,30.04,SSE,168,0.0,1.0,92,0.00,,BKN250,0.00,0.00,VWS V14.00,2013-01-07 10:09:00,
2013-01-07 05:14:00,68.4,66.0,30.04,SSE,168,0.0,1.0,92,0.00,,BKN250,0.00,0.00,VWS V14.00,2013-01-07 10:14:00,
2013-01-07 05:19:00,68.4,66.0,30.04,SSE,168,0.0,0.0,92,0.00,,BKN250,0.00,0.00,VWS V14.00,2013-01-07 10:19:00,
2013-01-07 05:24:00,68.4,66.0,30.05,SSE,168,2.0,2.0,92,0.00,,BKN250,0.00,0.00,VWS V14.00,2013-01-07 10:24:00,
2013-01-07 05:29:00,68.4,66.0,30.05,SSE,168,1.0,1.0,92,0.00,,BKN250,0.00,0.00,VWS V14.00,2013-01-07 10:29:00,
2013-01-07 05:34:00,68.4,66.0,30.05,SSE,168,0.0,2.0,92,0.00,,BKN250,0.00,0.00,VWS V14.00,2013-01-07 10:34:00,
2013-01-07 05:39:00,68.5,66.1,30.05,SSE,168,0.0,2.0,92,0.00,,BKN250,0.00,0.00,VWS V14.00,2013-01-07 10:39:00,
2013-01-07 05:44:00,68.6,66.2,30.05,SSE,168,0.0,1.0,92,0.00,,BKN250,0.00,0.00,VWS V14.00,2013-01-07 10:44:00,
2013-01-07 05:49:00,68.6,66.2,30.04,SSE,168,0.0,3.0,92,0.00,,BKN250,0.00,0.00,VWS V14.00,2013-01-07 10:49:00,
2013-01-07 05:54:00,68.6,66.2,30.05,SSE,168,0.0,3.0,92,0.00,,BKN250,0.00,0.00,VWS V14.00,2013-01-07 10:54:00,
2013-01-07 05:59:00,68.6,66.2,30.05,SSE,168,0.0,1.0,92,0.00,,BKN250,0.00,0.00,VWS V14.00,2013-01-07 10:59:00,
2013-01-07 06:04:00,68.6,66.2,30.05,SSE,168,0.0,0.0,92,0.00,,BKN250,0.00,0.00,VWS V14.00,2013-01-07 11:04:00,
2013-01-07 06:09:00,68.6,66.2,30.05,SSE,168,0.0,2.0,92,0.00,,BKN250,0.00,0.00,VWS V14.00,2013-01-07 11:09:00,
2013-01-07 06:14:00,68.6,66.2,30.05,SSE,168,0.0,3.0,92,0.00,,BKN250,0.00,0.00,VWS V14.00,2013-01-07 11:14:00,
2013-01-07 06:19:00,68.6,66.2,30.05,SSE,168,0.0,0.0,92,0.00,,BKN250,0.00,0.00,VWS V14.00,2013-01-07 11:19:00,
2013-01-07 06:24:00,68.5,66.1,30.05,SSE,168,0.0,0.0,92,0.00,,BKN250,0.00,0.00,VWS V14.00,2013-01-07 11:24:00,
2013-01-07 06:29:00,68.5,66.1,30.05,SSE,168,4.0,4.0,92,0.00,,BKN250,0.00,0.00,VWS V14.00,2013-01-07 11:29:00,
2013-01-07 06:34:00,68.5,66.1,30.05,SSE,168,0.0,1.0,92,0.00,,BKN250,0.00,0.00,VWS V14.00,2013-01-07 11:34:00,
2013-01-07 06:39:00,68.5,66.1,30.05,SSE,168,0.0,0.0,92,0.00,,BKN250,0.00,0.00,VWS V14.00,2013-01-07 11:39:00,
2013-01-07 06:44:00,68.4,66.0,30.05,SSE,168,0.0,0.0,92,0.00,,BKN250,0.00,0.00,VWS V14.00,2013-01-07 11:44:00,
2013-01-07 06:49:00,68.5,66.1,30.06,SSE,168,0.0,0.0,92,0.00,,BKN250,0.00,0.00,VWS V14.00,2013-01-07 11:49:00,
2013-01-07 06:54:00,68.4,66.0,30.06,SSE,168,0.0,0.0,92,0.00,,BKN250,0.00,0.00,VWS V14.00,2013-01-07 11:54:00,
2013-01-07 06:59:00,68.4,66.0,30.06,SSE,168,0.0,0.0,92,0.00,,BKN250,0.00,0.00,VWS V14.00,2013-01-07 11:59:00,
2013-01-07 07:04:00,68.3,65.9,30.06,SSE,168,1.0,1.0,92,0.00,,BKN250,0.00,0.00,VWS V14.00,2013-01-07 12:04:00,
2013-01-07 07:09:00,68.3,65.9,30.06,SSE,168,0.0,0.0,92,0.00,,BKN250,0.00,0.00,VWS V14.00,2013-01-07 12:09:00,
2013-01-07 07:14:00,68.2,65.8,30.07,SSE,168,0.0,0.0,92,0.00,,BKN250,0.00,0.00,VWS V14.00,2013-01-07 12:14:00,
2013-01-07 07:19:00,68.3,65.9,30.07,SSE,168,0.0,1.0,92,0.00,,BKN250,0.00,0.00,VWS V14.00,2013-01-07 12:19:00,
2013-01-07 07:24:00,68.4,66.0,30.07,SSE,168,0.0,0.0,92,0.00,,BKN250,0.00,0.00,VWS V14.00,2013-01-07 12:24:00,
2013-01-07 07:29:00,68.5,66.1,30.07,SSE,168,0.0,0.0,92,0.00,,BKN250,0.00,5.00,VWS V14.00,2013-01-07 12:29:00,
2013-01-07 07:34:00,68.4,66.0,30.08,SSE,168,0.0,3.0,92,0.00,,FEW030,0.00,9.00,VWS V14.00,2013-01-07 12:34:00,
2013-01-07 07:39:00,68.5,66.1,30.08,SSE,168,0.0,1.0,92,0.00,,FEW030,0.00,9.00,VWS V14.00,2013-01-07 12:39:00,
2013-01-07 07:45:00,68.6,66.2,30.08,SSE,168,0.0,0.0,92,0.00,,FEW030,0.00,9.00,VWS V14.00,2013-01-07 12:45:00,
2013-01-07 07:50:00,68.6,66.2,30.08,SSE,153,3.0,5.0,92,0.00,,FEW030,0.00,11.00,VWS V14.00,2013-01-07 12:50:00,
2013-01-07 07:55:00,68.7,66.3,30.08,ESE,113,6.0,6.0,92,0.00,,FEW030,0.00,14.00,VWS V14.00,2013-01-07 12:55:00,
2013-01-07 08:00:00,68.8,66.4,30.09,ESE,109,5.0,6.0,92,0.00,,FEW030,0.00,14.00,VWS V14.00,2013-01-07 13:00:00,
2013-01-07 08:05:00,69.0,66.6,30.09,East,101,3.0,6.0,92,0.00,,FEW030,0.00,14.00,VWS V14.00,2013-01-07 13:05:00,
2013-01-07 08:10:00,69.1,66.4,30.09,East,101,0.0,3.0,91,0.00,,FEW030,0.00,12.00,VWS V14.00,2013-01-07 13:10:00,
2013-01-07 08:15:00,69.3,66.6,30.09,East,101,2.0,4.0,91,0.00,,FEW030,0.00,14.00,VWS V14.00,2013-01-07 13:15:00,
2013-01-07 08:20:00,69.4,66.7,30.10,East,101,1.0,5.0,91,0.00,,FEW030,0.00,14.00,VWS V14.00,2013-01-07 13:20:00,
2013-01-07 08:25:00,69.5,66.8,30.10,East,97,2.0,6.0,91,0.00,,FEW030,0.00,14.00,VWS V14.00,2013-01-07 13:25:00,
2013-01-07 08:30:00,69.6,66.9,30.10,East,86,3.0,4.0,91,0.00,,FEW030,0.00,16.00,VWS V14.00,2013-01-07 13:30:00,
2013-01-07 08:35:00,69.8,67.1,30.10,East,82,3.0,7.0,91,0.00,,FEW030,0.00,18.00,VWS V14.00,2013-01-07 13:35:00,
2013-01-07 08:40:00,69.9,67.2,30.10,East,81,3.0,5.0,91,0.00,,FEW030,0.00,19.00,VWS V14.00,2013-01-07 13:40:00,
2013-01-07 08:45:00,70.0,67.3,30.10,East,80,3.0,6.0,91,0.00,,FEW030,0.00,25.00,VWS V14.00,2013-01-07 13:45:00,
2013-01-07 08:50:00,70.1,67.4,30.10,East,80,6.0,6.0,91,0.00,,FEW030,0.00,30.00,VWS V14.00,2013-01-07 13:50:00,
2013-01-07 08:55:00,70.2,67.4,30.10,East,80,0.0,4.0,91,0.00,,FEW030,0.00,33.00,VWS V14.00,2013-01-07 13:55:00,
2013-01-07 09:00:00,70.3,67.6,30.10,ENE,78,0.0,3.0,91,0.00,,FEW030,0.00,39.00,VWS V14.00,2013-01-07 14:00:00,
2013-01-07 09:05:00,70.4,67.7,30.10,ENE,77,3.0,5.0,91,0.00,,FEW030,0.00,37.00,VWS V14.00,2013-01-07 14:05:00,
2013-01-07 09:10:00,70.4,67.3,30.10,ENE,74,1.0,5.0,90,0.00,,FEW030,0.00,44.00,VWS V14.00,2013-01-07 14:10:00,
2013-01-07 09:15:00,70.6,67.8,30.11,ENE,74,1.0,5.0,91,0.00,,FEW030,0.00,44.00,VWS V14.00,2013-01-07 14:15:00,
2013-01-07 09:20:00,70.7,67.9,30.11,ENE,74,3.0,4.0,91,0.00,,FEW030,0.00,44.00,VWS V14.00,2013-01-07 14:20:00,
2013-01-07 09:25:00,70.8,68.1,30.11,ENE,73,6.0,6.0,91,0.00,,FEW030,0.00,39.00,VWS V14.00,2013-01-07 14:25:00,
2013-01-07 09:30:00,71.0,67.9,30.11,ENE,71,2.0,4.0,90,0.00,,FEW030,0.00,33.00,VWS V14.00,2013-01-07 14:30:00,
2013-01-07 09:35:00,71.1,68.0,30.11,ENE,71,1.0,3.0,90,0.00,,FEW030,0.00,33.00,VWS V14.00,2013-01-07 14:35:00,
2013-01-07 09:40:00,71.2,68.4,30.12,ENE,68,3.0,7.0,91,0.00,,FEW030,0.00,33.00,VWS V14.00,2013-01-07 14:40:00,
2013-01-07 09:45:00,71.3,68.2,30.12,ENE,68,0.0,2.0,90,0.00,,FEW030,0.00,26.00,VWS V14.00,2013-01-07 14:45:00,
2013-01-07 09:50:00,71.4,68.3,30.12,ENE,68,3.0,4.0,90,0.00,,FEW030,0.00,30.00,VWS V14.00,2013-01-07 14:50:00,
2013-01-07 09:55:00,71.6,68.5,30.11,ENE,68,2.0,3.0,90,0.00,,BKN060,0.00,37.00,VWS V14.00,2013-01-07 14:55:00,
2013-01-07 10:00:00,71.6,68.5,30.12,ENE,68,2.0,4.0,90,0.00,,BKN060,0.00,40.00,VWS V14.00,2013-01-07 15:00:00,
2013-01-07 10:05:00,71.7,68.6,30.11,ENE,66,3.0,7.0,90,0.00,,BKN060,0.00,35.00,VWS V14.00,2013-01-07 15:05:00,
2013-01-07 10:10:00,71.7,68.6,30.11,East,83,6.0,8.0,90,0.00,,BKN060,0.00,44.00,VWS V14.00,2013-01-07 15:10:00,
2013-01-07 10:15:00,71.8,68.7,30.11,East,96,2.0,6.0,90,0.00,,BKN060,0.00,49.00,VWS V14.00,2013-01-07 15:15:00,
2013-01-07 10:20:00,71.9,68.8,30.11,East,94,4.0,6.0,90,0.00,,BKN060,0.00,46.00,VWS V14.00,2013-01-07 15:20:00,
2013-01-07 10:25:00,72.0,68.9,30.11,East,93,6.0,7.0,90,0.00,,BKN060,0.00,25.00,VWS V14.00,2013-01-07 15:25:00,
2013-01-07 10:30:00,71.8,68.4,30.11,SE,132,4.0,9.0,89,0.00,,BKN060,0.00,30.00,VWS V14.00,2013-01-07 15:30:00,
2013-01-07 10:35:00,71.2,68.1,30.11,ESE,104,4.0,6.0,90,0.00,,OVC013,0.00,35.00,VWS V14.00,2013-01-07 15:35:00,
2013-01-07 10:40:00,71.0,67.9,30.12,ESE,115,8.0,8.0,90,0.00,,OVC013,0.00,21.00,VWS V14.00,2013-01-07 15:40:00,
2013-01-07 10:45:00,70.7,67.6,30.11,SE,128,5.0,9.0,90,0.00,,OVC013,0.00,23.00,VWS V14.00,2013-01-07 15:45:00,
2013-01-07 10:50:00,70.3,67.2,30.11,ESE,110,6.0,11.0,90,0.00,,OVC013,0.00,33.00,VWS V14.00,2013-01-07 15:50:00,
2013-01-07 10:55:00,70.3,67.6,30.11,SE,126,4.0,8.0,91,0.00,,OVC013,0.00,37.00,VWS V14.00,2013-01-07 15:55:00,
2013-01-07 11:00:00,70.2,67.4,30.11,SE,137,5.0,9.0,91,0.00,,OVC013,0.00,37.00,VWS V14.00,2013-01-07 16:00:00,
2013-01-07 11:05:00,70.1,67.4,30.11,SE,130,9.0,10.0,91,0.00,,OVC013,0.00,35.00,VWS V14.00,2013-01-07 16:05:00,
2013-01-07 11:10:00,70.0,67.3,30.11,SE,124,4.0,9.0,91,0.00,,OVC013,0.00,40.00,VWS V14.00,2013-01-07 16:10:00,
2013-01-07 11:15:00,70.0,67.3,30.11,SE,139,2.0,6.0,91,0.00,,OVC013,0.00,58.00,VWS V14.00,2013-01-07 16:15:00,
2013-01-07 11:20:00,70.3,67.6,30.11,SE,139,4.0,7.0,91,0.00,,OVC013,0.00,77.00,VWS V14.00,2013-01-07 16:20:00,
2013-01-07 11:25:00,70.5,68.1,30.10,SE,140,3.0,10.0,92,0.00,,OVC013,0.00,84.00,VWS V14.00,2013-01-07 16:25:00,
2013-01-07 11:30:00,70.6,68.2,30.10,SE,146,7.0,7.0,92,0.00,,OVC013,0.00,77.00,VWS V14.00,2013-01-07 16:30:00,
2013-01-07 11:35:00,70.8,68.4,30.10,SE,146,3.0,5.0,92,0.00,,OVC013,0.00,67.00,VWS V14.00,2013-01-07 16:35:00,
2013-01-07 11:40:00,70.8,68.4,30.10,SE,146,0.0,5.0,92,0.00,,OVC013,0.00,54.00,VWS V14.00,2013-01-07 16:40:00,
2013-01-07 11:45:00,70.6,68.2,30.10,SE,145,1.0,5.0,92,0.00,,OVC013,0.00,60.00,VWS V14.00,2013-01-07 16:45:00,
2013-01-07 11:50:00,70.7,68.3,30.10,SE,145,5.0,5.0,92,0.00,,OVC013,0.00,51.00,VWS V14.00,2013-01-07 16:50:00,
2013-01-07 11:55:00,70.7,68.3,30.10,SE,145,3.0,6.0,92,0.00,,OVC013,0.00,58.00,VWS V14.00,2013-01-07 16:55:00,
2013-01-07 12:00:00,70.4,68.0,30.09,SE,145,0.0,1.0,92,0.00,,OVC013,0.00,69.00,VWS V14.00,2013-01-07 17:00:00,
2013-01-07 12:05:00,70.6,68.2,30.09,SE,145,0.0,3.0,92,0.00,,OVC013,0.00,69.00,VWS V14.00,2013-01-07 17:05:00,
2013-01-07 12:10:00,70.3,67.9,30.08,SE,145,1.0,5.0,92,0.00,,OVC013,0.00,69.00,VWS V14.00,2013-01-07 17:10:00,
2013-01-07 12:15:00,70.3,67.9,30.08,SE,145,0.0,0.0,92,0.00,,OVC013,0.00,54.00,VWS V14.00,2013-01-07 17:15:00,
2013-01-07 12:20:00,70.4,67.7,30.08,SE,145,0.0,4.0,91,0.00,,OVC016,0.00,53.00,VWS V14.00,2013-01-07 17:20:00,
2013-01-07 12:25:00,70.5,68.1,30.08,SE,145,1.0,1.0,92,0.00,,OVC016,0.00,67.00,VWS V14.00,2013-01-07 17:25:00,
2013-01-07 12:30:00,70.6,68.2,30.08,SE,145,0.0,1.0,92,0.00,,OVC016,0.00,58.00,VWS V14.00,2013-01-07 17:30:00,
2013-01-07 12:35:00,70.5,67.8,30.07,SE,145,0.0,3.0,91,0.00,,OVC016,0.00,58.00,VWS V14.00,2013-01-07 17:35:00,
2013-01-07 12:40:00,70.7,67.9,30.06,SE,132,4.0,5.0,91,0.00,,OVC016,0.00,54.00,VWS V14.00,2013-01-07 17:40:00,
2013-01-07 12:45:00,70.8,68.1,30.06,East,93,5.0,7.0,91,0.00,,OVC016,0.00,58.00,VWS V14.00,2013-01-07 17:45:00,
2013-01-07 12:50:00,70.9,67.8,30.06,ENE,71,3.0,4.0,90,0.00,,OVC016,0.00,74.00,VWS V14.00,2013-01-07 17:50:00,
2013-01-07 12:55:00,71.2,68.1,30.05,ENE,61,3.0,6.0,90,0.00,,OVC016,0.00,83.00,VWS V14.00,2013-01-07 17:55:00,
2013-01-07 13:00:00,71.5,68.4,30.05,NE,49,5.0,7.0,90,0.00,,OVC016,0.00,84.00,VWS V14.00,2013-01-07 18:00:00,
2013-01-07 13:05:00,71.6,68.2,30.05,NE,39,6.0,9.0,89,0.00,,OVC016,0.00,69.00,VWS V14.00,2013-01-07 18:05:00,
2013-01-07 13:10:00,71.6,68.2,30.05,NNE,32,5.0,5.0,89,0.00,,OVC016,0.00,56.00,VWS V14.00,2013-01-07 18:10:00,
2013-01-07 13:15:00,71.6,68.2,30.05,NNE,29,6.0,7.0,89,0.00,,OVC016,0.00,56.00,VWS V14.00,2013-01-07 18:15:00,
2013-01-07 13:20:00,71.6,67.9,30.05,NNE,28,3.0,6.0,88,0.00,,OVC016,0.00,60.00,VWS V14.00,2013-01-07 18:20:00,
2013-01-07 13:25:00,71.7,68.0,30.05,NNE,28,3.0,4.0,88,0.00,,OVC016,0.00,46.00,VWS V14.00,2013-01-07 18:25:00,
2013-01-07 13:30:00,71.9,68.2,30.05,NNE,28,5.0,5.0,88,0.00,,OVC016,0.00,49.00,VWS V14.00,2013-01-07 18:30:00,
2013-01-07 13:35:00,71.9,68.2,30.05,NNE,28,3.0,4.0,88,0.00,,OVC016,0.00,49.00,VWS V14.00,2013-01-07 18:35:00,
2013-01-07 13:40:00,71.9,67.8,30.05,NNE,28,3.0,5.0,87,0.00,,OVC016,0.00,53.00,VWS V14.00,2013-01-07 18:40:00,
2013-01-07 13:45:00,71.8,67.7,30.05,NNE,28,2.0,5.0,87,0.00,,OVC016,0.00,56.00,VWS V14.00,2013-01-07 18:45:00,
2013-01-07 13:50:00,71.8,67.7,30.05,NE,34,4.0,4.0,87,0.00,,OVC016,0.00,58.00,VWS V14.00,2013-01-07 18:50:00,
2013-01-07 13:55:00,71.9,68.2,30.05,NE,35,2.0,4.0,88,0.00,,OVC016,0.00,65.00,VWS V14.00,2013-01-07 18:55:00,
2013-01-07 14:00:00,71.8,68.1,30.04,NE,36,1.0,1.0,88,0.00,,OVC016,0.00,77.00,VWS V14.00,2013-01-07 19:00:00,
2013-01-07 14:05:00,71.9,67.8,30.04,NE,36,4.0,5.0,87,0.00,,OVC016,0.00,77.00,VWS V14.00,2013-01-07 19:05:00,
2013-01-07 14:10:00,72.2,68.1,30.04,NE,50,5.0,7.0,87,0.00,,OVC016,0.00,88.00,VWS V14.00,2013-01-07 19:10:00,
2013-01-07 14:15:00,72.3,68.2,30.04,ENE,66,5.0,9.0,87,0.00,,OVC016,0.00,81.00,VWS V14.00,2013-01-07 19:15:00,
2013-01-07 14:20:00,72.5,68.4,30.03,ENE,72,3.0,4.0,87,0.00,,OVC016,0.00,84.00,VWS V14.00,2013-01-07 19:20:00,
2013-01-07 14:26:00,72.5,68.4,30.04,ENE,69,5.0,9.0,87,0.00,,OVC016,0.00,86.00,VWS V14.00,2013-01-07 19:26:00,
2013-01-07 14:31:00,72.5,68.4,30.03,ENE,57,7.0,7.0,87,0.00,,OVC016,0.00,81.00,VWS V14.00,2013-01-07 19:31:00,
2013-01-07 14:36:00,72.2,67.8,30.03,ENE,76,4.0,10.0,86,0.00,,BKN070,0.00,70.00,VWS V14.00,2013-01-07 19:36:00,
2013-01-07 14:41:00,72.2,67.4,30.03,ENE,64,4.0,9.0,85,0.00,,BKN070,0.00,67.00,VWS V14.00,2013-01-07 19:41:00,
2013-01-07 14:46:00,72.3,67.5,30.03,ENE,66,3.0,7.0,85,0.00,,BKN070,0.00,79.00,VWS V14.00,2013-01-07 19:46:00,
2013-01-07 14:51:00,72.6,67.8,30.03,ENE,63,2.0,6.0,85,0.00,,BKN070,0.00,83.00,VWS V14.00,2013-01-07 19:51:00,
2013-01-07 14:56:00,72.9,68.1,30.03,ENE,59,6.0,6.0,85,0.00,,BKN070,0.00,97.00,VWS V14.00,2013-01-07 19:56:00,
2013-01-07 15:01:00,73.1,68.0,30.03,ENE,69,9.0,13.0,84,0.00,,BKN070,0.00,91.00,VWS V14.00,2013-01-07 20:01:00,
2013-01-07 15:06:00,73.2,67.7,30.03,ENE,69,9.0,11.0,83,0.00,,BKN070,0.00,104.00,VWS V14.00,2013-01-07 20:06:00,
2013-01-07 15:11:00,73.5,67.7,30.03,ENE,70,4.0,6.0,82,0.00,,BKN070,0.00,107.00,VWS V14.00,2013-01-07 20:11:00,
2013-01-07 15:16:00,73.8,68.0,30.03,ENE,69,7.0,7.0,82,0.00,,BKN070,0.00,120.00,VWS V14.00,2013-01-07 20:16:00,
2013-01-07 15:19:00,73.9,68.1,30.03,ENE,73,6.0,7.0,82,0.00,,BKN070,0.00,113.00,VWS V14.00,2013-01-07 20:19:00,
2013-01-07 15:24:00,74.2,68.4,30.03,ENE,74,4.0,5.0,82,0.00,,BKN070,0.00,93.00,VWS V14.00,2013-01-07 20:24:00,
2013-01-07 15:29:00,74.3,68.1,30.03,ENE,78,3.0,6.0,81,0.00,,BKN070,0.00,76.00,VWS V14.00,2013-01-07 20:29:00,
2013-01-07 15:34:00,74.5,68.3,30.03,ENE,73,2.0,6.0,81,0.00,,BKN070,0.00,44.00,VWS V14.00,2013-01-07 20:34:00,
2013-01-07 15:39:00,74.5,68.3,30.03,ENE,75,4.0,5.0,81,0.00,,BKN070,0.00,28.00,VWS V14.00,2013-01-07 20:39:00,
2013-01-07 15:44:00,74.5,68.3,30.03,ENE,75,3.0,5.0,81,0.00,,BKN070,0.00,26.00,VWS V14.00,2013-01-07 20:44:00,
2013-01-07 15:49:00,74.5,68.3,30.03,ENE,75,3.0,5.0,81,0.00,,BKN070,0.00,32.00,VWS V14.00,2013-01-07 20:49:00,
2013-01-07 15:54:00,74.5,68.3,30.03,ENE,75,0.0,3.0,81,0.00,,BKN070,0.00,33.00,VWS V14.00,2013-01-07 20:54:00,
2013-01-07 15:59:00,74.4,67.8,30.04,ENE,75,2.0,4.0,80,0.00,,BKN070,0.00,26.00,VWS V14.00,2013-01-07 20:59:00,
2013-01-07 16:04:00,74.4,68.2,30.04,ENE,71,4.0,6.0,81,0.00,,BKN070,0.00,19.00,VWS V14.00,2013-01-07 21:04:00,
2013-01-07 16:09:00,74.3,68.4,30.04,ENE,67,4.0,10.0,82,0.00,,BKN070,0.00,23.00,VWS V14.00,2013-01-07 21:09:00,
2013-01-07 16:14:00,74.1,68.6,30.04,ENE,61,2.0,5.0,83,0.00,,BKN070,0.00,28.00,VWS V14.00,2013-01-07 21:14:00,
2013-01-07 16:19:00,73.9,68.4,30.04,NE,55,4.0,6.0,83,0.00,,BKN070,0.00,32.00,VWS V14.00,2013-01-07 21:19:00,
2013-01-07 16:24:00,73.8,68.7,30.04,NE,55,4.0,7.0,84,0.00,,BKN070,0.00,32.00,VWS V14.00,2013-01-07 21:24:00,
2013-01-07 16:29:00,73.7,68.9,30.04,ENE,57,3.0,7.0,85,0.00,,BKN070,0.00,32.00,VWS V14.00,2013-01-07 21:29:00,
2013-01-07 16:34:00,73.6,69.2,30.04,ENE,58,4.0,7.0,86,0.00,,BKN070,0.00,28.00,VWS V14.00,2013-01-07 21:34:00,
2013-01-07 16:39:00,73.5,69.1,30.04,ENE,60,4.0,5.0,86,0.00,,BKN070,0.00,21.00,VWS V14.00,2013-01-07 21:39:00,
2013-01-07 16:44:00,73.5,69.4,30.04,ENE,60,3.0,5.0,87,0.00,,BKN070,0.00,16.00,VWS V14.00,2013-01-07 21:44:00,
2013-01-07 16:49:00,73.5,69.4,30.04,ENE,57,7.0,7.0,87,0.00,,BKN070,0.00,18.00,VWS V14.00,2013-01-07 21:49:00,
2013-01-07 16:54:00,73.5,69.4,30.04,NE,53,5.0,6.0,87,0.00,,BKN070,0.00,23.00,VWS V14.00,2013-01-07 21:54:00,
2013-01-07 16:59:00,73.4,69.3,30.04,ENE,57,5.0,6.0,87,0.00,,BKN070,0.00,23.00,VWS V14.00,2013-01-07 21:59:00,
2013-01-07 17:04:00,73.4,69.3,30.04,ENE,59,4.0,5.0,87,0.00,,BKN070,0.00,21.00,VWS V14.00,2013-01-07 22:04:00,
2013-01-07 17:09:00,73.4,69.3,30.04,ENE,60,3.0,5.0,87,0.00,,BKN070,0.00,18.00,VWS V14.00,2013-01-07 22:09:00,
2013-01-07 17:14:00,73.5,69.4,30.04,ENE,60,6.0,6.0,87,0.00,,BKN070,0.00,14.00,VWS V14.00,2013-01-07 22:14:00,
2013-01-07 17:19:00,73.5,69.4,30.04,ENE,61,5.0,7.0,87,0.00,,BKN070,0.00,11.00,VWS V14.00,2013-01-07 22:19:00,
2013-01-07 17:24:00,73.4,69.3,30.05,ENE,69,4.0,7.0,87,0.00,,BKN070,0.00,7.00,VWS V14.00,2013-01-07 22:24:00,
2013-01-07 17:29:00,73.3,69.2,30.05,ENE,69,3.0,4.0,87,0.00,,BKN070,0.00,5.00,VWS V14.00,2013-01-07 22:29:00,
2013-01-07 17:34:00,73.3,69.5,30.05,ENE,69,0.0,0.0,88,0.00,,BKN060,0.00,0.00,VWS V14.00,2013-01-07 22:34:00,
2013-01-07 17:39:00,73.2,69.1,30.05,ENE,71,2.0,4.0,87,0.00,,BKN060,0.00,0.00,VWS V14.00,2013-01-07 22:39:00,
2013-01-07 17:44:00,73.1,69.0,30.05,ENE,71,5.0,6.0,87,0.00,,BKN060,0.00,0.00,VWS V14.00,2013-01-07 22:44:00,
2013-01-07 17:49:00,72.9,68.8,30.06,ENE,74,3.0,6.0,87,0.00,,BKN060,0.00,0.00,VWS V14.00,2013-01-07 22:49:00,
2013-01-07 17:54:00,72.9,68.5,30.06,ENE,73,3.0,5.0,86,0.00,,BKN060,0.00,0.00,VWS V14.00,2013-01-07 22:54:00,
2013-01-07 17:59:00,72.8,68.4,30.06,ENE,73,0.0,0.0,86,0.00,,BKN060,0.00,0.00,VWS V14.00,2013-01-07 22:59:00,
2013-01-07 18:04:00,72.8,68.4,30.06,ENE,73,1.0,4.0,86,0.00,,BKN060,0.00,0.00,VWS V14.00,2013-01-07 23:04:00,
2013-01-07 18:09:00,72.7,68.3,30.06,ENE,73,0.0,0.0,86,0.00,,BKN060,0.00,0.00,VWS V14.00,2013-01-07 23:09:00,
2013-01-07 18:14:00,72.7,68.3,30.06,ENE,73,0.0,2.0,86,0.00,,BKN060,0.00,0.00,VWS V14.00,2013-01-07 23:14:00,
2013-01-07 18:19:00,72.6,68.2,30.06,ENE,73,0.0,0.0,86,0.00,,BKN060,0.00,0.00,VWS V14.00,2013-01-07 23:19:00,
2013-01-07 18:24:00,72.6,68.2,30.06,ENE,73,0.0,1.0,86,0.00,,BKN060,0.00,0.00,VWS V14.00,2013-01-07 23:24:00,
2013-01-07 18:29:00,72.5,68.1,30.06,ENE,73,0.0,1.0,86,0.00,,BKN060,0.00,0.00,VWS V14.00,2013-01-07 23:29:00,
2013-01-07 18:34:00,72.5,68.1,30.06,ENE,73,0.0,3.0,86,0.00,,OVC060,0.00,0.00,VWS V14.00,2013-01-07 23:34:00,
2013-01-07 18:39:00,72.5,68.1,30.07,ENE,73,0.0,2.0,86,0.00,,OVC060,0.00,0.00,VWS V14.00,2013-01-07 23:39:00,
2013-01-07 18:44:00,72.5,68.1,30.07,ENE,73,0.0,1.0,86,0.00,,OVC060,0.00,0.00,VWS V14.00,2013-01-07 23:44:00,
2013-01-07 18:49:00,72.4,68.0,30.07,ENE,73,0.0,0.0,86,0.00,,OVC060,0.00,0.00,VWS V14.00,2013-01-07 23:49:00,
2013-01-07 18:54:00,72.4,68.0,30.07,ENE,73,0.0,0.0,86,0.00,,OVC060,0.00,0.00,VWS V14.00,2013-01-07 23:54:00,
2013-01-07 18:59:00,72.4,68.0,30.07,ENE,73,0.0,0.0,86,0.00,,OVC060,0.00,0.00,VWS V14.00,2013-01-07 23:59:00,
2013-01-07 19:04:00,72.4,68.0,30.07,ENE,73,1.0,2.0,86,0.00,,OVC060,0.00,0.00,VWS V14.00,2013-01-08 00:04:00,
2013-01-07 19:09:00,72.3,67.9,30.07,ENE,73,0.0,3.0,86,0.00,,OVC060,0.00,0.00,VWS V14.00,2013-01-08 00:09:00,
2013-01-07 19:14:00,72.3,68.2,30.07,ENE,73,1.0,2.0,87,0.00,,OVC060,0.00,0.00,VWS V14.00,2013-01-08 00:14:00,
2013-01-07 19:19:00,72.2,68.1,30.08,ENE,73,0.0,0.0,87,0.00,,OVC060,0.00,0.00,VWS V14.00,2013-01-08 00:19:00,
2013-01-07 19:24:00,72.2,68.1,30.08,ENE,73,0.0,1.0,87,0.00,,OVC060,0.00,0.00,VWS V14.00,2013-01-08 00:24:00,
2013-01-07 19:29:00,72.2,68.1,30.08,ENE,73,0.0,0.0,87,0.00,,OVC060,0.00,0.00,VWS V14.00,2013-01-08 00:29:00,
2013-01-07 19:34:00,72.2,68.1,30.08,ENE,73,0.0,3.0,87,0.00,,OVC060,0.00,0.00,VWS V14.00,2013-01-08 00:34:00,
2013-01-07 19:40:00,72.2,68.4,30.08,ENE,73,0.0,1.0,88,0.00,,OVC060,0.00,0.00,VWS V14.00,2013-01-08 00:40:00,
2013-01-07 19:45:00,72.2,68.4,30.08,ENE,73,0.0,0.0,88,0.00,,OVC060,0.00,0.00,VWS V14.00,2013-01-08 00:45:00,
2013-01-07 19:50:00,72.1,68.3,30.08,ENE,73,1.0,3.0,88,0.00,,OVC060,0.00,0.00,VWS V14.00,2013-01-08 00:50:00,
2013-01-07 19:55:00,72.1,68.3,30.08,ENE,73,1.0,1.0,88,0.00,,OVC060,0.00,0.00,VWS V14.00,2013-01-08 00:55:00,
2013-01-07 20:00:00,72.1,68.3,30.09,ENE,73,0.0,2.0,88,0.00,,OVC060,0.00,0.00,VWS V14.00,2013-01-08 01:00:00,
2013-01-07 20:05:00,72.1,68.3,30.08,ENE,73,0.0,1.0,88,0.00,,OVC060,0.00,0.00,VWS V14.00,2013-01-08 01:05:00,
2013-01-07 20:10:00,72.0,68.3,30.09,ENE,73,0.0,2.0,88,0.00,,OVC060,0.00,0.00,VWS V14.00,2013-01-08 01:10:00,
2013-01-07 20:15:00,72.0,68.3,30.08,ENE,73,2.0,2.0,88,0.00,,OVC060,0.00,0.00,VWS V14.00,2013-01-08 01:15:00,
2013-01-07 20:20:00,72.0,68.3,30.08,ENE,73,0.0,3.0,88,0.00,,OVC060,0.00,0.00,VWS V14.00,2013-01-08 01:20:00,
2013-01-07 20:25:00,72.0,68.3,30.09,ENE,73,0.0,1.0,88,0.00,,OVC060,0.00,0.00,VWS V14.00,2013-01-08 01:25:00,
2013-01-07 20:30:00,71.9,68.5,30.09,ENE,73,0.0,1.0,89,0.00,,OVC060,0.00,0.00,VWS V14.00,2013-01-08 01:30:00,
2013-01-07 20:35:00,71.9,68.5,30.09,ENE,73,0.0,1.0,89,0.00,,OVC060,0.00,0.00,VWS V14.00,2013-01-08 01:35:00,
2013-01-07 20:40:00,71.8,68.4,30.09,ENE,73,0.0,1.0,89,0.00,,OVC060,0.00,0.00,VWS V14.00,2013-01-08 01:40:00,
2013-01-07 20:45:00,71.7,68.3,30.09,ENE,73,0.0,0.0,89,0.00,,OVC060,0.00,0.00,VWS V14.00,2013-01-08 01:45:00,
2013-01-07 20:50:00,71.7,68.3,30.09,ENE,73,1.0,1.0,89,0.00,,OVC060,0.00,0.00,VWS V14.00,2013-01-08 01:50:00,
2013-01-07 20:55:00,71.5,68.1,30.09,ENE,73,1.0,1.0,89,0.00,,OVC060,0.00,0.00,VWS V14.00,2013-01-08 01:55:00,
2013-01-07 21:00:00,71.5,68.1,30.09,ENE,73,1.0,1.0,89,0.00,,OVC060,0.00,0.00,VWS V14.00,2013-01-08 02:00:00,
2013-01-07 21:05:00,71.4,68.0,30.09,ENE,73,0.0,1.0,89,0.00,,OVC060,0.00,0.00,VWS V14.00,2013-01-08 02:05:00,
2013-01-07 21:10:00,71.3,67.9,30.09,ENE,73,1.0,1.0,89,0.00,,OVC060,0.00,0.00,VWS V14.00,2013-01-08 02:10:00,
2013-01-07 21:15:00,71.2,67.8,30.09,ENE,73,0.0,1.0,89,0.00,,OVC060,0.00,0.00,VWS V14.00,2013-01-08 02:15:00,
2013-01-07 21:20:00,71.2,68.1,30.09,ENE,73,0.0,0.0,90,0.00,,OVC060,0.00,0.00,VWS V14.00,2013-01-08 02:20:00,
2013-01-07 21:25:00,71.1,68.0,30.09,ENE,73,0.0,0.0,90,0.00,,OVC060,0.00,0.00,VWS V14.00,2013-01-08 02:25:00,
2013-01-07 21:30:00,71.0,67.9,30.09,ENE,73,0.0,0.0,90,0.00,,OVC060,0.00,0.00,VWS V14.00,2013-01-08 02:30:00,
2013-01-07 21:35:00,70.8,67.7,30.09,ENE,73,0.0,0.0,90,0.00,,BKN060,0.00,0.00,VWS V14.00,2013-01-08 02:35:00,
2013-01-07 21:40:00,70.8,67.7,30.08,ENE,73,0.0,0.0,90,0.00,,BKN060,0.00,0.00,VWS V14.00,2013-01-08 02:40:00,
2013-01-07 21:45:00,70.6,67.5,30.09,ENE,73,0.0,0.0,90,0.00,,BKN060,0.00,0.00,VWS V14.00,2013-01-08 02:45:00,
2013-01-07 21:50:00,70.5,67.4,30.09,ENE,73,0.0,0.0,90,0.00,,BKN060,0.00,0.00,VWS V14.00,2013-01-08 02:50:00,
2013-01-07 21:55:00,70.4,67.3,30.09,ENE,73,0.0,1.0,90,0.00,,BKN060,0.00,0.00,VWS V14.00,2013-01-08 02:55:00,
2013-01-07 22:00:00,70.4,67.3,30.09,ENE,73,0.0,0.0,90,0.00,,BKN060,0.00,0.00,VWS V14.00,2013-01-08 03:00:00,
2013-01-07 22:05:00,70.3,67.2,30.08,ENE,73,0.0,0.0,90,0.00,,BKN060,0.00,0.00,VWS V14.00,2013-01-08 03:05:00,
2013-01-07 22:10:00,70.2,67.1,30.08,ENE,73,0.0,0.0,90,0.00,,BKN060,0.00,0.00,VWS V14.00,2013-01-08 03:10:00,
2013-01-07 22:15:00,70.1,67.0,30.08,ENE,73,0.0,0.0,90,0.00,,BKN060,0.00,0.00,VWS V14.00,2013-01-08 03:15:00,
2013-01-07 22:20:00,70.1,67.4,30.08,ENE,73,0.0,0.0,91,0.00,,BKN060,0.00,0.00,VWS V14.00,2013-01-08 03:20:00,
2013-01-07 22:25:00,70.1,67.4,30.08,ENE,73,0.0,0.0,91,0.00,,BKN060,0.00,0.00,VWS V14.00,2013-01-08 03:25:00,
2013-01-07 22:30:00,70.0,67.3,30.09,ENE,73,0.0,0.0,91,0.00,,BKN060,0.00,0.00,VWS V14.00,2013-01-08 03:30:00,
2013-01-07 22:35:00,69.9,67.2,30.08,ENE,73,0.0,0.0,91,0.00,,-RA,0.00,0.00,VWS V14.00,2013-01-08 03:35:00,
2013-01-07 22:40:00,70.1,67.4,30.08,ENE,73,0.0,1.0,91,0.00,,-RA,0.00,0.00,VWS V14.00,2013-01-08 03:40:00,
2013-01-07 22:45:00,70.2,67.4,30.08,ENE,73,0.0,1.0,91,0.00,,-RA,0.00,0.00,VWS V14.00,2013-01-08 03:45:00,
2013-01-07 22:50:00,70.2,67.4,30.08,ENE,73,0.0,0.0,91,0.00,,-RA,0.00,0.00,VWS V14.00,2013-01-08 03:50:00,
2013-01-07 22:55:00,70.3,67.6,30.08,ENE,73,0.0,0.0,91,0.00,,-RA,0.00,0.00,VWS V14.00,2013-01-08 03:55:00,
2013-01-07 23:00:00,70.3,67.6,30.08,ENE,73,0.0,0.0,91,0.00,,-RA,0.00,0.00,VWS V14.00,2013-01-08 04:00:00,
2013-01-07 23:05:00,70.4,67.7,30.08,ENE,73,0.0,0.0,91,0.00,,-RA,0.00,0.00,VWS V14.00,2013-01-08 04:05:00,
2013-01-07 23:10:00,70.5,67.8,30.08,ENE,73,0.0,0.0,91,0.00,,-RA,0.00,0.00,VWS V14.00,2013-01-08 04:10:00,
2013-01-07 23:15:00,70.4,67.7,30.08,ENE,73,0.0,0.0,91,0.00,,-RA,0.00,0.00,VWS V14.00,2013-01-08 04:15:00,
2013-01-07 23:20:00,70.3,67.6,30.08,ENE,73,0.0,0.0,91,0.00,,-RA,0.00,0.00,VWS V14.00,2013-01-08 04:20:00,
2013-01-07 23:26:00,70.3,67.6,30.08,ENE,73,0.0,0.0,91,0.00,,-RA,0.00,0.00,VWS V14.00,2013-01-08 04:26:00,
2013-01-07 23:31:00,70.3,67.6,30.07,ENE,73,0.0,0.0,91,0.00,,-RA,0.00,0.00,VWS V14.00,2013-01-08 04:31:00,
2013-01-07 23:36:00,70.2,67.4,30.07,ENE,73,0.0,0.0,91,0.00,, +RA,0.00,0.00,VWS V14.00,2013-01-08 04:36:00,
2013-01-07 23:41:00,70.2,67.4,30.07,ENE,73,0.0,0.0,91,0.00,, +RA,0.00,0.00,VWS V14.00,2013-01-08 04:41:00,
2013-01-07 23:46:00,70.1,67.7,30.07,ENE,73,0.0,0.0,92,0.00,, +RA,0.00,0.00,VWS V14.00,2013-01-08 04:46:00,
2013-01-07 23:51:00,70.1,67.7,30.07,ENE,73,0.0,0.0,92,0.00,, +RA,0.00,0.00,VWS V14.00,2013-01-08 04:51:00,
2013-01-07 23:56:00,70.1,67.7,30.07,ENE,73,0.0,0.0,92,0.00,, +RA,0.00,0.00,VWS V14.00,2013-01-08 04:56:00,